Darstellungsparameter: Aktuell verwendete Einstellungen:
Skalierung der Graphiken ... ?
xyx+y,   Skalierungsfaktor:      Skalierung: Modus: x, Faktor: 1
Darstellungszeitraum ... ?
Vom - - bis: - -   Zeitraum: 24.09.2020 - 23.03.2021
Min/Max/Avg-Anzeige ... ?
Zeige MMA aktuell
Zeige MMA Monat
Zeige MMA alles
Zeige --A aktuell
Zeige --A Monat
Zeige --A alles
Keine MMA-Anzeige
MMA:
Average (ber die Originaldaten)
MMA-Basis: 24.09.2020 - 23.03.2021
Quicknavigation für Darstellung... ?
Tage:      1T, 2T, 3T, 5T -1T -2T -3T -5T +1T +2T +3T +5T
Wochen: 1W, 2W, 3W -1W -2W -3W +1W +2W +3W
Monate: 1M, 3M, 6M -1M -3M -6M +1M +3M +6M
Jahre:    1J, 3J, 5J, 10J -1J -3J -5J -10J +1J +3J +5J +10J
Nutze für die Darstellung ... ?
Originaldaten oder ...
Mittelwerte Minima Maxima auf...
Stundenbasis Tagesbasis Wochenbasis
Monatsbasis Jahresbasis      Datenbasis: Mittelwerte auf Tagesbasis
Darstellen als:
Statistik (Auto) Statistik J:M      Darstellung:
Zur Graphik,    zurück zur Übersicht aller Sensoren.
 
Tabellarische Datenbersicht: ?
 
Sensor: Nr:Datum:Temp:Abs-Feuchte:Windchill:Wind:
Aussen-T/F 1 24-09-2020 00:00:00 16.23021 C 10.63 g/m*3 16.23 C 6.51458 km/h
2 25-09-2020 00:00:00 12.16979 C 8.92 g/m*3 12.17 C 6.2375 km/h
3 26-09-2020 00:00:00 10.52674 C 8.57 g/m*3 9.23 C 10.16528 km/h
4 27-09-2020 00:00:00 11.00694 C 9.2 g/m*3 11.01 C 3.05417 km/h
5 28-09-2020 00:00:00 11.72882 C 9.12 g/m*3 11.73 C 2.08542 km/h
6 29-09-2020 00:00:00 12.13333 C 10.11 g/m*3 12.13 C 2.01181 km/h
7 30-09-2020 00:00:00 14.10799 C 11.27 g/m*3 14.11 C 1.49028 km/h
8 01-10-2020 00:00:00 12.57465 C 10.28 g/m*3 12.57 C 1.79167 km/h
9 02-10-2020 00:00:00 13.41493 C 10.32 g/m*3 13.41 C 3.99028 km/h
10 03-10-2020 00:00:00 13.37049 C 10.26 g/m*3 13.37 C 4.70139 km/h
11 04-10-2020 00:00:00 11.79861 C 9.09 g/m*3 11.8 C 5.03785 km/h
12 05-10-2020 00:00:00 11.07257 C 9.18 g/m*3 11.07 C 4.18125 km/h
13 06-10-2020 00:00:00 13.11389 C 10.11 g/m*3 13.11 C 9.72361 km/h
14 07-10-2020 00:00:00 13.19444 C 9.43 g/m*3 13.19 C 10.52674 km/h
15 08-10-2020 00:00:00 13.25243 C 10.22 g/m*3 13.25 C 9.92882 km/h
16 09-10-2020 00:00:00 12.99063 C 10.74 g/m*3 12.99 C 3.04167 km/h
17 10-10-2020 00:00:00 9.91979 C 8.09 g/m*3 9.53 C 5.46806 km/h
18 11-10-2020 00:00:00 10.06944 C 7.91 g/m*3 10.07 C 3.7941 km/h
19 12-10-2020 00:00:00 9.40799 C 8.28 g/m*3 9.41 C 2.21146 km/h
20 13-10-2020 00:00:00 7.37361 C 7.35 g/m*3 7.37 C 1.675 km/h
21 14-10-2020 00:00:00 7.7559 C 7.3 g/m*3 7.76 C 3.28819 km/h
22 15-10-2020 00:00:00 9.09444 C 8.18 g/m*3 9.09 C 2.88958 km/h
23 16-10-2020 00:00:00 9.26007 C 8.27 g/m*3 9.26 C 1.825 km/h
24 17-10-2020 00:00:00 6.19618 C 6.87 g/m*3 6.2 C 0.83403 km/h
25 18-10-2020 00:00:00 8.18958 C 7.58 g/m*3 8.19 C 3.07847 km/h
Sensor: Nr:Datum:Temp:Abs-Feuchte:Windchill:Wind:
Aussen-T/F 26 19-10-2020 00:00:00 8.62604 C 7.89 g/m*3 8.63 C 1.77847 km/h
27 20-10-2020 00:00:00 8.95714 C 8.23 g/m*3 8.96 C 1.27108 km/h
28 21-10-2020 00:00:00 15.08611 C 10.6 g/m*3 15.09 C 3.43924 km/h
29 22-10-2020 00:00:00 16.18681 C 11.86 g/m*3 16.19 C 3.23125 km/h
30 23-10-2020 00:00:00 15.0691 C 11.94 g/m*3 15.07 C 1.57049 km/h
31 24-10-2020 00:00:00 13.40799 C 10.12 g/m*3 13.41 C 5.98194 km/h
32 25-10-2020 00:00:00 13.16458 C 9.89 g/m*3 13.16 C 2.75104 km/h
33 26-10-2020 00:00:00 10.20313 C 8.43 g/m*3 10.2 C 3.64583 km/h
34 27-10-2020 00:00:00 10.44514 C 8.03 g/m*3 10.45 C 4.82604 km/h
35 28-10-2020 00:00:00 12.59861 C 9.23 g/m*3 12.6 C 6.52049 km/h
36 29-10-2020 00:00:00 10.65347 C 9 g/m*3 10.04 C 6.76285 km/h
37 30-10-2020 00:00:00 13.81667 C 10.81 g/m*3 13.82 C 7.83611 km/h
38 31-10-2020 00:00:00 13.1434 C 9.98 g/m*3 13.14 C 3.45035 km/h
39 01-11-2020 00:00:00 15.18715 C 11.89 g/m*3 15.19 C 6.08715 km/h
40 02-11-2020 00:00:00 18.53125 C 12.8 g/m*3 18.53 C 13.2875 km/h
41 03-11-2020 00:00:00 10.3559 C 8.24 g/m*3 10.11 C 5.15382 km/h
42 04-11-2020 00:00:00 4.54444 C 6.28 g/m*3 4.54 C 0.86667 km/h
43 05-11-2020 00:00:00 3.1178 C 5.8 g/m*3 3.12 C 0.73898 km/h
44 06-11-2020 00:00:00 3.23681 C 5.88 g/m*3 3.24 C 1.18333 km/h
45 07-11-2020 00:00:00 4.20285 C 6.18 g/m*3 4.2 C 1.19573 km/h
46 08-11-2020 00:00:00 7.08472 C 7.39 g/m*3 7.08 C 0 km/h
47 09-11-2020 00:00:00 9.85972 C 8.93 g/m*3 9.86 C 0.26701 km/h
48 10-11-2020 00:00:00 7.08333 C 7.56 g/m*3 7.08 C 0.01667 km/h
49 11-11-2020 00:00:00 9.01875 C 8.34 g/m*3 9.02 C 2.23264 km/h
50 12-11-2020 00:00:00 9.26458 C 8.1 g/m*3 9.26 C 3.0566 km/h
Sensor: Nr:Datum:Temp:Abs-Feuchte:Windchill:Wind:
Aussen-T/F 51 13-11-2020 00:00:00 6.6191 C 7.24 g/m*3 6.62 C 0.48889 km/h
52 14-11-2020 00:00:00 10.4625 C 9 g/m*3 10.46 C 1.51354 km/h
53 15-11-2020 00:00:00 13.18819 C 9.92 g/m*3 13.19 C 4.00243 km/h
54 16-11-2020 00:00:00 10.81736 C 8.52 g/m*3 9.48 C 10.79271 km/h
55 17-11-2020 00:00:00 11.47778 C 8.76 g/m*3 11.48 C 8.51979 km/h
56 18-11-2020 00:00:00 9.90625 C 8.37 g/m*3 9.91 C 1.85 km/h
57 19-11-2020 00:00:00 8.99688 C 7.8 g/m*3 7.89 C 7.74306 km/h
58 20-11-2020 00:00:00 4.04167 C 5.9 g/m*3 4.04 C 2.40313 km/h
59 21-11-2020 00:00:00 3.39688 C 5.47 g/m*3 3.4 C 3.25903 km/h
60 22-11-2020 00:00:00 7.66701 C 6.84 g/m*3 5.58 C 11.4559 km/h
61 23-11-2020 00:00:00 7.74201 C 7.38 g/m*3 7.74 C 3.77917 km/h
62 24-11-2020 00:00:00 6.32917 C 6.81 g/m*3 6.33 C 1.77986 km/h
63 25-11-2020 00:00:00 4.53125 C 6.15 g/m*3 4.53 C 0.70139 km/h
64 26-11-2020 00:00:00 3.39653 C 5.79 g/m*3 3.4 C 1.24549 km/h
65 27-11-2020 00:00:00 3.65278 C 5.83 g/m*3 3.65 C 1.20035 km/h
66 28-11-2020 00:00:00 3.30521 C 5.6 g/m*3 3.31 C 2.09618 km/h
67 29-11-2020 00:00:00 0.89479 C 4.42 g/m*3 0.89 C 3.54375 km/h
68 30-11-2020 00:00:00 -1.56215 C 4.02 g/m*3 -1.56 C 4.05417 km/h
69 01-12-2020 00:00:00 2.81111 C 5.62 g/m*3 2.81 C 3.11563 km/h
70 02-12-2020 00:00:00 2.83889 C 5.63 g/m*3 2.84 C 0.50069 km/h
71 03-12-2020 00:00:00 3.59132 C 5.69 g/m*3 3.59 C 3.66944 km/h
72 04-12-2020 00:00:00 4.57361 C 6.21 g/m*3 4.57 C 4.0434 km/h
73 05-12-2020 00:00:00 4.12778 C 6.14 g/m*3 4.13 C 0.80104 km/h
74 06-12-2020 00:00:00 3.92917 C 6.1 g/m*3 3.93 C 0.6 km/h
75 07-12-2020 00:00:00 4.18854 C 6.12 g/m*3 4.19 C 2.85451 km/h
Sensor: Nr:Datum:Temp:Abs-Feuchte:Windchill:Wind:
Aussen-T/F 76 08-12-2020 00:00:00 3.36667 C 5.64 g/m*3 3.37 C 1.2316 km/h
77 09-12-2020 00:00:00 2.17326 C 5.2 g/m*3 2.17 C 2.31875 km/h
78 10-12-2020 00:00:00 0.38125 C 4.65 g/m*3 0.38 C 0.52222 km/h
79 11-12-2020 00:00:00 2.71597 C 5.29 g/m*3 2.72 C 3.92118 km/h
80 12-12-2020 00:00:00 6.01111 C 6.89 g/m*3 6.01 C 0.17222 km/h
81 13-12-2020 00:00:00 5.90799 C 6.84 g/m*3 5.91 C 2.30521 km/h
82 14-12-2020 00:00:00 6.08576 C 6.6 g/m*3 6.09 C 1.23472 km/h
83 15-12-2020 00:00:00 7.82014 C 7.84 g/m*3 7.82 C 0.87257 km/h
84 16-12-2020 00:00:00 7.48125 C 7.77 g/m*3 7.48 C 1.33438 km/h
85 17-12-2020 00:00:00 7.2309 C 7.48 g/m*3 7.23 C 3.21736 km/h
86 18-12-2020 00:00:00 4.31771 C 6.31 g/m*3 4.32 C 0.91875 km/h
87 19-12-2020 00:00:00 6.22292 C 6.99 g/m*3 6.22 C 2.33125 km/h
88 20-12-2020 00:00:00 7.98889 C 7.77 g/m*3 7.99 C 1.88681 km/h
89 21-12-2020 00:00:00 7.12639 C 7.44 g/m*3 7.13 C 1.81632 km/h
90 22-12-2020 00:00:00 13.11875 C 10.58 g/m*3 13.12 C 11.07153 km/h
91 23-12-2020 00:00:00 11.78889 C 10.17 g/m*3 11.79 C 3.35243 km/h
92 24-12-2020 00:00:00 6.83681 C 6.92 g/m*3 5.18 C 8.46944 km/h
93 25-12-2020 00:00:00 3.34653 C 5.57 g/m*3 3.35 C 4.76597 km/h
94 26-12-2020 00:00:00 2.93368 C 5.31 g/m*3 1.57 C 5.40313 km/h
95 27-12-2020 00:00:00 3.76528 C 5.54 g/m*3 1.83 C 7.48889 km/h
96 28-12-2020 00:00:00 3.67431 C 5.96 g/m*3 3.67 C 1.42951 km/h
97 29-12-2020 00:00:00 2.99375 C 5.59 g/m*3 2.99 C 4.11563 km/h
98 30-12-2020 00:00:00 3.90938 C 5.81 g/m*3 3.91 C 3.58611 km/h
99 31-12-2020 00:00:00 2.97986 C 5.53 g/m*3 2.98 C 0.83403 km/h
100 01-01-2021 00:00:00 2.09757 C 5.39 g/m*3 2.1 C 0.48889 km/h
Sensor: Nr:Datum:Temp:Abs-Feuchte:Windchill:Wind:
Aussen-T/F 101 02-01-2021 00:00:00 1.36771 C 5.11 g/m*3 1.37 C 1.04444 km/h
102 03-01-2021 00:00:00 2.60903 C 5.25 g/m*3 2.61 C 1.92639 km/h
103 04-01-2021 00:00:00 1.67326 C 5.23 g/m*3 1.67 C 0.16111 km/h
104 05-01-2021 00:00:00 2.52431 C 5.48 g/m*3 2.52 C 0.38368 km/h
105 06-01-2021 00:00:00 2.73333 C 5.49 g/m*3 2.73 C 2.58472 km/h
106 07-01-2021 00:00:00 2.03368 C 5.13 g/m*3 0.45 C 5.63299 km/h
107 08-01-2021 00:00:00 1.95556 C 5.27 g/m*3 1.96 C 3.92118 km/h
108 09-01-2021 00:00:00 1.34271 C 5 g/m*3 1.34 C 0.99063 km/h
109 10-01-2021 00:00:00 0.68472 C 4.71 g/m*3 0.68 C 0.51667 km/h
110 11-01-2021 00:00:00 -0.44062 C 4.24 g/m*3 -0.44 C 3.43576 km/h
111 12-01-2021 00:00:00 3.87847 C 5.74 g/m*3 0.48 C 14.31424 km/h
112 13-01-2021 00:00:00 2.46875 C 5.1 g/m*3 0.17 C 7.98368 km/h
113 14-01-2021 00:00:00 2.00556 C 4.78 g/m*3 2.01 C 3.29306 km/h
114 15-01-2021 00:00:00 0.32431 C 4.31 g/m*3 0.32 C 2.99722 km/h
115 16-01-2021 00:00:00 0.42812 C 4.13 g/m*3 0.43 C 2.00035 km/h
116 17-01-2021 00:00:00 0.51181 C 4.78 g/m*3 0.51 C 0.83889 km/h
117 18-01-2021 00:00:00 3.81701 C 5.75 g/m*3 1.14 C 10.44931 km/h
118 19-01-2021 00:00:00 5.13611 C 5.81 g/m*3 1.48 C 18.11319 km/h
119 20-01-2021 00:00:00 6.33056 C 6.06 g/m*3 6.33 C 2.75417 km/h
120 21-01-2021 00:00:00 8.93368 C 7.12 g/m*3 7.66 C 8.425 km/h
121 22-01-2021 00:00:00 5.72396 C 6.54 g/m*3 5.72 C 4.93958 km/h
122 23-01-2021 00:00:00 4.06493 C 5.91 g/m*3 4.06 C 2.17917 km/h
123 24-01-2021 00:00:00 2.12708 C 5.13 g/m*3 -0.06 C 7.40764 km/h
124 25-01-2021 00:00:00 1.33611 C 4.95 g/m*3 1.34 C 3.10799 km/h
125 26-01-2021 00:00:00 3.28854 C 5.12 g/m*3 0.08 C 12.50764 km/h
Sensor: Nr:Datum:Temp:Abs-Feuchte:Windchill:Wind:
Aussen-T/F 126 27-01-2021 00:00:00 2.29201 C 5.26 g/m*3 0.33 C 6.80069 km/h
127 28-01-2021 00:00:00 7.12014 C 7.32 g/m*3 5.58 C 8.17292 km/h
128 29-01-2021 00:00:00 8.84861 C 7.84 g/m*3 7.37 C 9.37882 km/h
129 30-01-2021 00:00:00 4.08715 C 5.94 g/m*3 2.71 C 5.89028 km/h
130 31-01-2021 00:00:00 1.01563 C 4.75 g/m*3 1.02 C 3.0691 km/h
131 01-02-2021 00:00:00 3.89132 C 6.09 g/m*3 3.89 C 0.50556 km/h
132 02-02-2021 00:00:00 7.66319 C 7.66 g/m*3 7.66 C 4.7059 km/h
133 03-02-2021 00:00:00 9.71944 C 8.69 g/m*3 8.81 C 7.37257 km/h
134 04-02-2021 00:00:00 6.63229 C 6.74 g/m*3 5.49 C 6.36007 km/h
135 05-02-2021 00:00:00 6.42708 C 7.17 g/m*3 6.43 C 0.39444 km/h
136 06-02-2021 00:00:00 5.10799 C 6.57 g/m*3 5.11 C 4.53368 km/h
137 07-02-2021 00:00:00 1.10556 C 4.97 g/m*3 -1.05 C 6.80382 km/h
138 08-02-2021 00:00:00 -3.50382 C 3.33 g/m*3 -6.19 C 6.30174 km/h
139 09-02-2021 00:00:00 -4.71007 C 2.78 g/m*3 -4.71 C 4.2184 km/h
140 10-02-2021 00:00:00 -5.63507 C 2.57 g/m*3 -8.41 C 5.80521 km/h
141 11-02-2021 00:00:00 -3.28646 C 3.22 g/m*3 -3.29 C 2.92708 km/h
142 12-02-2021 00:00:00 -4.72708 C 2.76 g/m*3 -7.18 C 5.43333 km/h
143 13-02-2021 00:00:00 -5.43715 C 2.6 g/m*3 -5.44 C 4.15972 km/h
144 14-02-2021 00:00:00 -3.78299 C 2.97 g/m*3 -3.78 C 3.77639 km/h
145 15-02-2021 00:00:00 0.83194 C 4.03 g/m*3 0.83 C 3.01076 km/h
146 16-02-2021 00:00:00 5.64757 C 6.68 g/m*3 5.65 C 2.22083 km/h
147 17-02-2021 00:00:00 7.15451 C 7.09 g/m*3 6.09 C 6.37882 km/h
148 18-02-2021 00:00:00 4.16806 C 5.98 g/m*3 4.17 C 1.98299 km/h
149 19-02-2021 00:00:00 6.25486 C 6.54 g/m*3 6.25 C 3.35313 km/h
150 20-02-2021 00:00:00 6.97083 C 6.8 g/m*3 6.97 C 2.57396 km/h
Sensor: Nr:Datum:Temp:Abs-Feuchte:Windchill:Wind:
Aussen-T/F 151 21-02-2021 00:00:00 7.73056 C 6.69 g/m*3 7.73 C 2.58576 km/h
152 22-02-2021 00:00:00 6.65069 C 6.65 g/m*3 6.65 C 0.62222 km/h
153 23-02-2021 00:00:00 11.51076 C 8.49 g/m*3 11.51 C 2.42118 km/h
154 24-02-2021 00:00:00 10.01771 C 8.19 g/m*3 10.02 C 0.61875 km/h
155 25-02-2021 00:00:00 9.55417 C 7.4 g/m*3 9.55 C 1.55729 km/h
156 26-02-2021 00:00:00 7.00972 C 6.81 g/m*3 7.01 C 3.14549 km/h
157 27-02-2021 00:00:00 4.3559 C 5.65 g/m*3 4.36 C 2.49097 km/h
158 28-02-2021 00:00:00 5.84236 C 5.47 g/m*3 5.84 C 3.60833 km/h
159 01-03-2021 00:00:00 4.21632 C 5.4 g/m*3 4.22 C 2.37847 km/h
160 02-03-2021 00:00:00 5.65937 C 5.96 g/m*3 5.66 C 1.23507 km/h
161 03-03-2021 00:00:00 6.83889 C 6.33 g/m*3 6.84 C 0.12257 km/h
162 04-03-2021 00:00:00 6.55764 C 6.74 g/m*3 6.56 C 3.55313 km/h
163 05-03-2021 00:00:00 3.77535 C 4.98 g/m*3 2.49 C 5.53229 km/h
164 06-03-2021 00:00:00 0.57465 C 3.84 g/m*3 0.57 C 2.44063 km/h
165 07-03-2021 00:00:00 0.7691 C 3.86 g/m*3 0.77 C 2.72396 km/h
166 08-03-2021 00:00:00 1.04618 C 4.49 g/m*3 1.05 C 1.37882 km/h
167 09-03-2021 00:00:00 3.11875 C 5.52 g/m*3 3.12 C 3.20972 km/h
168 10-03-2021 00:00:00 6.84306 C 6.46 g/m*3 6.84 C 4.01632 km/h
169 11-03-2021 00:00:00 9.20314 C 7.48 g/m*3 6.86 C 15.55366 km/h
170 12-03-2021 00:00:00 7.43993 C 6.26 g/m*3 4.47 C 17.16042 km/h
171 13-03-2021 00:00:00 7.28785 C 6.56 g/m*3 4.45 C 15.90972 km/h
172 14-03-2021 00:00:00 5.28681 C 6.04 g/m*3 3.05 C 9.75208 km/h
173 15-03-2021 00:00:00 5.93368 C 6.34 g/m*3 3.58 C 10.97049 km/h
174 16-03-2021 00:00:00 5.88194 C 6.21 g/m*3 4.47 C 6.89375 km/h
175 17-03-2021 00:00:00 4.87465 C 5.76 g/m*3 3.68 C 5.70139 km/h
Sensor: Nr:Datum:Temp:Abs-Feuchte:Windchill:Wind:
Aussen-T/F 176 18-03-2021 00:00:00 3.22188 C 5.22 g/m*3 3.22 C 2.85868 km/h
177 19-03-2021 00:00:00 3.84687 C 4.87 g/m*3 1.93 C 7.48194 km/h
178 20-03-2021 00:00:00 3.32257 C 4.42 g/m*3 3.32 C 3.30972 km/h
179 21-03-2021 00:00:00 6.1125 C 5.79 g/m*3 4.38 C 8.22882 km/h
180 22-03-2021 00:00:00 5.83993 C 5.87 g/m*3 4.54 C 6.48854 km/h
181 23-03-2021 00:00:00 6.76528 C 5.9 g/m*3 6.77 C 3.50764 km/h

Maximal/Minimal-Werte vom 24.09.2020 - 23.03.2021

Sensor Min Max Avg
Temp
(Aussen-T/F)
-9.6 °C
14-02-2021  07:20:00
21.2 °C
21-10-2020  15:30:00
6.21 °C
Abs-Feuchte
(Aussen-T/F)
2.57 g/m*3
10-02-2021  00:00:00
12.8 g/m*3
02-11-2020  00:00:00
6.79 g/m*3
Windchill
(Aussen-T/F)
-8.41 C
10-02-2021  00:00:00
18.53 C
02-11-2020  00:00:00
5.77 C

Die Daten stammen von einer Davis Vantage Pro 2 Wetter-Station und werden unter Linux mit der Software wview2wettercgi und aufbereitet. Alle Angaben erfolgen ohne Gewähr für ihre Vollständigkeit oder Richtigkeit.
Kontakt: Rainer Krienke krienke@uni-koblenz.de . Meine Webseiten an der Uni Koblenz oder privat.
Version: $Revision: 0.78 $